Location: Melque
(41.0517°N, 4.4694°W)
Time: 23:43:40
(UTC+00:00)

Cosmos 2266 Rocket - Visible Passes

Search period start: 13 March 2026 00:00
Search period end: 23 March 2026 00:00
Orbit: 935 x 1006 km, 82.9° (Epoch: 13 March)

Date Brightness Start Highest point End Pass type
(mag) Time Alt. Az. Time Alt. Az. Time Alt. Az.
13 Mar 4.2 20:13:03 10° SSW 20:19:17 73° W 20:25:40 10° N visible
13 Mar 6.9 22:04:23 10° WNW 22:05:44 11° WNW 22:07:06 10° NW visible
14 Mar 7.0 05:25:27 10° NNE 05:28:44 14° ENE 05:32:00 10° E visible
14 Mar 4.8 18:52:51 10° SE 18:58:08 30° E 19:03:29 10° NNE visible
14 Mar 5.2 20:37:16 10° SW 20:43:09 42° WNW 20:49:10 10° N visible
15 Mar 6.6 05:47:49 10° NNE 05:52:58 25° ENE 05:58:02 10° SE visible
15 Mar 4.2 19:15:35 10° SSE 19:21:36 52° E 19:27:46 10° NNE visible
15 Mar 6.1 21:02:10 10° SW 21:07:11 25° WNW 21:12:18 10° NNW visible
16 Mar 4.0 19:38:57 10° S 19:45:14 89° E 19:51:40 10° N visible
16 Mar 6.8 21:28:12 10° W 21:31:25 14° WNW 21:34:40 10° NNW visible
17 Mar 7.3 04:52:55 10° NE 04:54:25 11° ENE 04:55:54 10° ENE visible
17 Mar 4.8 20:02:55 10° SSW 20:09:02 53° WNW 20:15:17 10° N visible
18 Mar 6.9 05:14:16 10° NNE 05:18:44 20° ENE 05:23:10 10° ESE visible
18 Mar 5.8 20:27:30 10° SW 20:33:00 31° WNW 20:38:36 10° NNW visible
19 Mar 6.0 05:37:09 10° N 05:42:52 33° ENE 05:48:28 10° SE visible
19 Mar 4.0 19:04:58 10° S 19:11:13 71° E 19:17:36 10° NNE visible
19 Mar 6.7 20:52:56 10° WSW 20:57:08 18° WNW 21:01:24 10° NNW visible
20 Mar 4.5 19:28:41 10° SSW 19:34:57 68° W 19:41:21 10° N visible
21 Mar 7.1 04:40:54 10° NNE 04:44:29 15° ENE 04:47:59 10° E visible
21 Mar 5.5 19:52:58 10° SW 19:58:50 39° WNW 20:04:49 10° N visible
22 Mar 6.4 05:03:26 10° NNE 05:08:41 26° ENE 05:13:50 10° SE visible
22 Mar 6.4 20:17:59 10° WSW 20:22:54 23° WNW 20:27:53 10° NNW visible
